Location: Newark
(43.6583°N, 1.6617°E)
Time: 17:42:47
(UTC+00:00)

Vanguard 1 Rocket - Pass Details

Date: 20 August 2019
Orbit: 650 x 4226 km, 34.3° (Epoch: 13 October)

Event Time Altitude Azimuth Distance (km) Brightness Sun altitude
Exits shadow 05:09:46 - 257° (WSW) 3,301 9.6 0.3°
Rises 05:09:49 0° 257° (WSW) 3,283 9.6 0.3°
Reaches altitude 10° 05:11:57 10° 249° (WSW) 2,547 9.1 0.7°
Maximum altitude 05:17:30 41° 180° (S) 1,711 8.7 1.7°
Drops below altitude 10° 05:27:06 10° 115° (ESE) 4,403 11.8 3.3°
Sets 05:32:05 0° 110° (ESE) 6,022 12.7 4.2°
